AKEBONO (EXOS-D) 1 19822U 89016A 19052.78641014 .00021527 66545-6 38670-3 0 9990 2 19822 75.0282 290.8266 1804467 333.5172 18.3614 11.92420689981806 HST 1 20580U 90037B 19052.90787853 .00000419 00000-0 14573-4 0 9996 2 20580 28.4687 264.1415 0002594 310.0267 174.4414 15.09176343383147 POLAR 1 23802U 96013A 19051.80673579 .00000165 00000-0 00000+0 0 9996 2 23802 78.6776 257.1601 6826448 299.5402 9.8906 1.29844772110120 SWAS 1 25560U 98071A 19052.86050804 .00000174 00000-0 25000-4 0 9994 2 25560 69.8993 155.1833 0009324 324.6031 35.4504 14.93698132 97101 ORSTED 1 25635U 99008B 19052.90855601 .00000047 00000-0 18346-4 0 9995 2 25635 96.4681 184.3532 0140472 86.6999 275.0258 14.48131355 54922 CXO 1 25867U 99040B 19055.51221293 .00000429 00000-0 00000+0 0 9999 2 25867 68.9266 277.9079 7083694 236.4378 0.2064 0.37808078 18381 XMM-NEWTON 1 25989U 99066A 19053.91606422 -.00000040 00000-0 00000+0 0 9995 2 25989 70.7979 336.5315 7743262 95.3785 0.4658 0.50139698 23973 TERRA 1 25994U 99068A 19053.20914656 .00000002 00000-0 10367-4 0 9995 2 25994 98.2027 129.4372 0001263 92.3361 267.7998 14.57113478 20239 CLUSTER II-FM7 (SAMBA) 1 26410U 00041A 19054.85752328 -.00000153 00000-0 00000+0 0 9996 2 26410 131.1323 338.0311 4106942 169.5708 359.4362 0.44209201 20220 CLUSTER II-FM6 (SALSA) 1 26411U 00041B 19054.88932568 .00000000 00000-0 00000+0 0 9996 2 26411 130.4813 339.1650 5078106 177.2100 359.5270 0.44246839 20214 CLUSTER II-FM5 (RUMBA) 1 26463U 00045A 19052.92784211 -.00000170 00000-0 00000+0 0 9999 2 26463 134.0613 338.2278 4756135 176.0413 359.4164 0.44156961 20793 CLUSTER II-FM8 (TANGO) 1 26464U 00045B 19051.59205183 -.00000118 00000-0 00000-0 0 9991 2 26464 131.1268 338.0017 4106205 169.4649 202.8826 0.44217890 8477 ODIN 1 26702U 01007A 19053.01944100 .00000240 00000-0 19801-4 0 9991 2 26702 97.5805 72.4245 0012635 110.4947 249.7638 15.07730161984270 TIMED 1 26998U 01055B 19052.85532069 .00000086 00000-0 13440-4 0 9990 2 26998 74.0727 171.8464 0001395 318.5571 41.5504 14.88086638932850 RHESSI 1 27370U 02004A 19052.93039044 .00001636 00000-0 57742-4 0 9999 2 27370 38.0321 253.2791 0012937 356.6941 3.3742 15.31119506940456 INTEGRAL 1 27540U 02048A 19050.52707737 .00000893 00000-0 00000+0 0 9994 2 27540 49.1294 152.2437 8703123 274.8754 4.3788 0.37596739 16583 CORIOLIS 1 27640U 03001A 19053.03724803 -.00000024 00000-0 92876-5 0 9992 2 27640 98.7354 64.6311 0013775 345.0994 73.9854 14.19001365835142 SORCE 1 27651U 03004A 19052.68252971 .00000078 00000-0 22238-4 0 9991 2 27651 39.9956 136.3975 0023011 237.1278 122.7296 14.88959068872391 MOST 1 27843U 03031D 19053.49878110 -.00000019 00000-0 11316-4 0 9994 2 27843 98.7130 62.7800 0010759 45.3494 314.8558 14.20584632811311 SCISAT 1 1 27858U 03036A 19053.17408530 .00000025 00000-0 84931-5 0 9995 2 27858 73.9324 54.7455 0007689 2.5579 357.5633 14.77234990836586 SWIFT 1 28485U 04047A 19052.47221628 .00000813 00000-0 25315-4 0 9993 2 28485 20.5561 158.1843 0011445 81.2574 278.9156 15.04304501780792 FORMOSAT-3 FM6 1 29047U 06011A 19053.31823326 -.00000026 00000-0 60085-5 0 9999 2 29047 71.9803 11.9387 0050383 174.3153 185.8566 14.28665287672625 FORMOSAT-3 FM1 1 29048U 06011B 19053.04334841 .00000038 00000-0 31346-4 0 9998 2 29048 71.9659 283.9757 0042654 130.7372 229.7480 14.28614757675057 FORMOSAT-3 FM5 1 29049U 06011C 19052.65178438 .00000053 00000-0 37081-4 0 9992 2 29049 72.0194 93.6945 0034458 164.5528 195.6669 14.28698050670783 FORMOSAT-3 FM3 1 29050U 06011D 19052.90923599 .00000116 00000-0 34743-4 0 9990 2 29050 72.0153 288.4195 0048448 121.2908 239.3002 14.58765333686109 FORMOSAT-3 FM4 1 29051U 06011E 19053.43167841 .00000053 00000-0 36604-4 0 9998 2 29051 72.0076 355.0653 0066965 35.2845 325.2696 14.28724398673486 FORMOSAT-3 FM2 1 29052U 06011F 19053.46484350 .00000066 00000-0 41893-4 0 9999 2 29052 72.0335 67.7688 0038315 122.0377 238.4491 14.28823514671816 CLOUDSAT 1 29107U 06016A 19052.93998909 .00000096 00000-0 28273-4 0 9996 2 29107 98.1738 358.5719 0002863 86.1457 274.0071 14.62301766681951 CALIPSO 1 29108U 06016B 19053.21323805 .00000111 00000-0 31263-4 0 9997 2 29108 98.1757 358.6503 0001275 79.8319 280.3026 14.62301479682016 HINODE (SOLAR-B) 1 29479U 06041A 19052.91449128 .00000042 00000-0 16890-4 0 9991 2 29479 98.1696 63.1246 0018349 84.7981 275.5315 14.64974114663381 SJ-6C 1 29505U 06046A 19053.47971623 -.00000352 00000-0 -27319-4 0 9992 2 29505 97.8280 63.5647 0002126 171.9682 188.1562 14.94496776671768 SJ-6D 1 29506U 06046B 19053.34850637 -.00000570 00000-0 -48792-4 0 9990 2 29506 97.8477 63.2770 0000560 300.8550 59.2622 14.93423713671369 AGILE 1 31135U 07013A 19052.40918121 .00002250 00000-0 35575-4 0 9995 2 31135 2.4683 359.6849 0012485 212.1110 147.8183 15.31355055290602 AIM 1 31304U 07015A 19052.66274254 .00000633 00000-0 39995-4 0 9998 2 31304 97.9719 270.6083 0004781 188.2693 171.8459 15.12954784647826 FGRST (GLAST) 1 33053U 08029A 19052.49462800 .00000470 00000-0 10130-4 0 9993 2 33053 25.5825 142.1148 0012204 188.1632 171.8706 15.11184702590321 WISE 1 36119U 09071A 19053.11056593 .00000667 00000-0 25990-4 0 9993 2 36119 97.3871 89.1455 0001255 330.0949 30.0219 15.29437727510233 SDO 1 36395U 10005A 19052.38064399 -.00000088 00000-0 00000+0 0 9997 2 36395 29.5580 129.5746 0000745 17.1578 38.8672 1.00267302 33232 CRYOSAT 2 1 36508U 10013A 19053.22122390 .00000077 00000-0 18314-4 0 9991 2 36508 92.0306 351.1663 0009311 58.9989 301.2132 14.52172331470418 X-SAT 1 37389U 11015C 19053.47150150 -.00000022 00000-0 90469-5 0 9997 2 37389 98.5005 121.0256 0012861 255.0831 104.8924 14.24367535407816 GCOM-W1 (SHIZUKU) 1 38337U 12025A 19052.95984538 .00000031 00000-0 16886-4 0 9999 2 38337 98.2298 354.6217 0001436 48.8942 353.0009 14.57112218359886 NUSTAR 1 38358U 12031A 19052.28347083 .00000939 00000-0 24619-4 0 9993 2 38358 6.0260 170.9655 0011345 143.7572 216.3326 14.88104389364067 RBSP A 1 38752U 12046A 19052.78818551 -.00000103 00000-0 -28962-4 0 9995 2 38752 9.9782 268.5125 6835771 329.4337 4.3319 2.68753647 63376 RBSP B 1 38753U 12046B 19046.24791872 -.00000067 00000-0 -69974-3 0 9992 2 38753 9.9994 286.0351 6856261 295.6281 16.4709 2.66338611 62708 NEOSSAT 1 39089U 13009D 19053.12636284 -.00000017 00000-0 95222-5 0 9996 2 39089 98.5050 258.6054 0010074 277.7287 82.2754 14.34454463313553 IRIS 1 39197U 13033A 19053.47774625 .00000066 00000-0 16227-4 0 9993 2 39197 97.9436 236.2926 0027362 347.9788 12.0766 14.78605863305025 HISAKI (SPRINT-A) 1 39253U 13049A 19053.24372007 .00000152 00000-0 11832-3 0 9998 2 39253 29.7202 119.3906 0137244 322.7855 36.3271 13.55205589269729 CASSIOPE 1 39265U 13055A 19052.87282853 .00002724 00000-0 78979-4 0 9998 2 39265 80.9673 96.8693 0669975 267.9509 84.4873 14.26920155279064 STSAT-3 1 39422U 13066G 19053.39851969 .00000063 00000-0 12127-4 0 9990 2 39422 97.5738 103.2416 0023135 357.0689 3.0371 14.89698633285512 SWARM B 1 39451U 13067A 19053.52597543 .00000306 00000-0 12011-4 0 9995 2 39451 87.7475 63.8716 0001796 113.7832 246.3602 15.21490104291407 SWARM A 1 39452U 13067B 19053.19076262 .00001027 00000-0 21789-4 0 9992 2 39452 87.3471 306.0906 0003420 88.9930 271.1719 15.43645260294969 SWARM C 1 39453U 13067C 19053.19069066 .00001049 00000-0 22275-4 0 9992 2 39453 87.3475 307.5241 0003420 88.1909 271.9740 15.43645314294939 BRITE-TORONTO 1 40020U 14033L 19053.55417201 .00000059 00000-0 18416-4 0 9998 2 40020 97.7580 263.7385 0087797 166.0562 194.3098 14.66552347250275 OCO 2 1 40059U 14035A 19053.49868921 .00000005 00000-0 11134-4 0 9995 2 40059 98.2231 356.1651 0001269 82.0175 278.1168 14.57114481246992 BRITE-PL 2 1 40119U 14049B 19053.23764193 .00000122 00000-0 20997-4 0 9992 2 40119 97.9067 144.9083 0016320 238.8124 121.1491 14.84370723244394 RESURS P2 1 40360U 14087A 19053.46587521 .00000504 00000-0 18181-4 0 9991 2 40360 97.2603 146.2922 0011181 103.3190 27.3607 15.32957639232616 MMS 1 1 40482U 15011A 19050.49242414 -.00001436 00000-0 00000+0 0 9995 2 40482 5.0824 106.1792 9136307 22.6836 19.2443 0.28555000 9828 MMS 2 1 40483U 15011B 19050.56020647 -.00001431 00000-0 00000+0 0 9991 2 40483 5.0822 106.2075 9138065 22.6209 26.3390 0.28554043 9803 MMS 3 1 40484U 15011C 19050.31722069 -.00001424 00000-0 00000+0 0 9994 2 40484 5.6745 104.9657 9139109 23.4406 1.3786 0.28577406 9814 MMS 4 1 40485U 15011D 19050.49242414 -.00001457 00000-0 00000+0 0 9991 2 40485 5.0914 106.0307 9120489 23.4582 18.7807 0.28581615 9800 ASTROSAT 1 40930U 15052A 19053.14835911 .00000738 00000-0 14723-4 0 9998 2 40930 5.9956 172.8556 0008036 302.9079 57.0453 14.76237397183974 DAMPE 1 41173U 15078A 19053.49717454 .00000055 00000-0 51712-5 0 9997 2 41173 97.3008 54.4880 0014690 140.3585 338.6009 15.23763797177150 PISAT 1 41784U 16059B 19053.15930031 .00000060 00000-0 20825-4 0 9992 2 41784 98.0853 115.8255 0032503 30.8970 329.4136 14.63404166128516 HXMT (HUIYAN) 1 42758U 17034A 19053.47160316 .00000132 00000-0 22062-4 0 9999 2 42758 43.0178 153.9900 0011068 246.8068 213.0823 15.08518099 93229 FLYING LAPTOP 1 42831U 17042G 19052.95818469 .00000031 00000-0 84990-5 0 9998 2 42831 97.5785 310.6513 0015693 88.9265 271.3752 14.90956502 87544 PICSAT 1 43132U 18004X 19052.91671191 .00001158 00000-0 51919-4 0 9992 2 43132 97.5026 120.9041 0008481 310.0166 50.0325 15.23246920 61724 ZHANGZHENG-1 (CSES) 1 43194U 18015C 19052.98971577 .00000048 00000-0 52785-5 0 9990 2 43194 97.3755 181.0372 0015418 2.9505 357.1818 15.20905291 58483